UAE4Q VIDP-OMDB

Flight info

Callsign UAE4Q
Flight time N/A
Altitude 38000
Route SURAM6G SURAM G333 MERUN G452 RK G214 BIVIN R462 VUSET A454 PASOV B540 KUPMA/N0469F240 B540 MIVEK P574 IMPED
Aircraft B77W/H-SDE1E2E3FGHIJ2J3J4J5M1RWXY/LB1D1

Departure

Time N/A
Airport Indira Gandhi International Airport (VIDP)

Arrival

Time 2026-05-05 12:12
Airport Dubai International Airport (OMDB)
Time Latitude Longitude Altitude Speed Heading
2026-05-05 11:31 24.28586 59.94339 37780 ft 455 kts 246°
2026-05-05 11:31 24.25834 59.88088 37777 ft 455 kts 246°
2026-05-05 11:32 24.23096 59.81878 37778 ft 455 kts 246°
2026-05-05 11:32 24.20340 59.75633 37777 ft 455 kts 246°
2026-05-05 11:33 24.17577 59.69380 37757 ft 455 kts 246°
2026-05-05 11:33 24.14814 59.63134 37781 ft 455 kts 246°
2026-05-05 11:34 24.12067 59.56929 37779 ft 456 kts 246°
2026-05-05 11:34 24.09296 59.50683 37781 ft 456 kts 246°
2026-05-05 11:35 24.06511 59.44438 37762 ft 457 kts 245°
2026-05-05 11:35 24.03724 59.38194 37762 ft 457 kts 245°
2026-05-05 11:36 24.00930 59.31942 37760 ft 457 kts 245°
2026-05-05 11:36 23.98161 59.25729 37777 ft 457 kts 245°
2026-05-05 11:37 23.95376 59.19482 37773 ft 455 kts 246°
2026-05-05 11:37 23.94325 59.16243 37769 ft 451 kts 259°
2026-05-05 11:37 23.94002 59.12833 37756 ft 451 kts 269°
2026-05-05 11:38 23.95044 59.06149 37784 ft 452 kts 288°
2026-05-05 11:38 23.97212 58.99667 37758 ft 455 kts 288°
2026-05-05 11:39 23.99379 58.93152 37756 ft 457 kts 288°
2026-05-05 11:39 24.01502 58.86589 37759 ft 458 kts 287°
2026-05-05 11:40 24.03605 58.80014 37752 ft 458 kts 287°
2026-05-05 11:40 24.05689 58.73487 37751 ft 457 kts 287°
2026-05-05 11:41 24.07784 58.66925 37763 ft 456 kts 287°
2026-05-05 11:41 24.09870 58.60381 37753 ft 455 kts 287°
2026-05-05 11:42 24.11942 58.53850 37743 ft 454 kts 287°
2026-05-05 11:42 24.13988 58.47365 37745 ft 453 kts 287°
2026-05-05 11:43 24.16046 58.40840 37760 ft 453 kts 287°
2026-05-05 11:43 24.18102 58.34320 37745 ft 453 kts 287°
2026-05-05 11:44 24.20153 58.27808 37746 ft 452 kts 287°
2026-05-05 11:44 24.22198 58.21301 37748 ft 451 kts 287°
2026-05-05 11:45 24.24239 58.14799 37753 ft 451 kts 287°
2026-05-05 11:45 24.26263 58.08337 37749 ft 451 kts 287°
2026-05-05 11:46 24.28300 58.01827 37747 ft 451 kts 287°
2026-05-05 11:46 24.30335 57.95309 37748 ft 452 kts 287°
2026-05-05 11:47 24.32367 57.88793 37758 ft 452 kts 287°
2026-05-05 11:47 24.34386 57.82307 37745 ft 452 kts 287°
2026-05-05 11:48 24.37428 57.72518 37746 ft 452 kts 287°
2026-05-05 11:48 24.39453 57.65987 37747 ft 452 kts 287°
2026-05-05 11:49 24.41474 57.59459 37750 ft 452 kts 286°
2026-05-05 11:49 24.43121 57.54136 37750 ft 451 kts 286°
2026-05-05 11:50 24.44122 57.50892 37629 ft 447 kts 286°
2026-05-05 11:50 24.45118 57.47657 37254 ft 448 kts 287°
2026-05-05 11:50 24.46118 57.44408 36781 ft 451 kts 287°
2026-05-05 11:50 24.47125 57.41135 36310 ft 454 kts 287°
2026-05-05 11:51 24.48139 57.37842 35850 ft 456 kts 287°
2026-05-05 11:51 24.49157 57.34535 35374 ft 458 kts 287°
2026-05-05 11:51 24.50177 57.31219 34913 ft 459 kts 287°
2026-05-05 11:51 24.51194 57.27912 34791 ft 454 kts 287°
2026-05-05 11:52 24.53209 57.21357 34783 ft 455 kts 287°
2026-05-05 11:52 24.55227 57.14771 34733 ft 457 kts 287°
2026-05-05 11:53 24.56248 57.11436 33854 ft 464 kts 288°
2026-05-05 11:53 24.57278 57.08069 32833 ft 466 kts 288°
2026-05-05 11:53 24.58313 57.04688 31805 ft 468 kts 288°
2026-05-05 11:53 24.59352 57.01287 30754 ft 471 kts 287°
2026-05-05 11:54 24.60392 56.97882 30002 ft 468 kts 287°
2026-05-05 11:54 24.61426 56.94493 29144 ft 466 kts 287°
2026-05-05 11:54 24.62450 56.91132 28364 ft 462 kts 287°
2026-05-05 11:54 24.63123 56.88920 27864 ft 459 kts 287°
2026-05-05 11:55 24.64616 56.84590 26899 ft 455 kts 293°
2026-05-05 11:55 24.66025 56.81488 26191 ft 452 kts 298°
2026-05-05 11:55 24.67654 56.78541 25510 ft 449 kts 300°
2026-05-05 11:55 24.69286 56.75627 24806 ft 447 kts 300°
2026-05-05 11:56 24.70361 56.73699 24349 ft 445 kts 300°
2026-05-05 11:56 24.71974 56.70793 23669 ft 444 kts 300°
2026-05-05 11:56 24.73571 56.67900 22896 ft 442 kts 300°
2026-05-05 11:56 24.75652 56.64117 21927 ft 430 kts 300°
2026-05-05 11:57 24.77194 56.61308 21268 ft 427 kts 300°
2026-05-05 11:57 24.78724 56.58519 20606 ft 423 kts 300°
2026-05-05 11:57 24.79744 56.56659 20173 ft 419 kts 301°
2026-05-05 11:57 24.81248 56.53916 19550 ft 417 kts 301°
2026-05-05 11:58 24.82725 56.51223 18915 ft 416 kts 301°
2026-05-05 11:58 24.84215 56.48503 18262 ft 414 kts 301°
2026-05-05 11:58 24.85700 56.45789 17549 ft 413 kts 301°
2026-05-05 11:58 24.87175 56.43084 16869 ft 411 kts 299°
2026-05-05 11:59 24.88454 56.40283 16225 ft 408 kts 294°
2026-05-05 11:59 24.89478 56.37376 15576 ft 406 kts 287°
2026-05-05 11:59 24.90255 56.34399 14943 ft 404 kts 285°
2026-05-05 11:59 24.91002 56.31419 14305 ft 403 kts 285°
2026-05-05 12:00 24.91747 56.28453 13775 ft 398 kts 285°
2026-05-05 12:00 24.92474 56.25586 13164 ft 379 kts 285°
2026-05-05 12:00 24.93175 56.22846 12589 ft 364 kts 285°
2026-05-05 12:00 24.93848 56.20223 12104 ft 354 kts 285°
2026-05-05 12:01 24.94500 56.17691 11445 ft 335 kts 284°
2026-05-05 12:01 24.95131 56.15235 10406 ft 337 kts 284°
2026-05-05 12:01 24.95777 56.12718 9865 ft 342 kts 285°
2026-05-05 12:01 24.96420 56.10213 9526 ft 337 kts 284°
2026-05-05 12:02 24.97054 56.07737 9162 ft 333 kts 284°
2026-05-05 12:02 24.97557 56.05267 8859 ft 328 kts 277°
2026-05-05 12:02 24.97819 56.02798 8730 ft 321 kts 274°
2026-05-05 12:02 24.98019 56.00336 8608 ft 325 kts 274°
2026-05-05 12:03 24.98222 55.97875 8493 ft 329 kts 274°
2026-05-05 12:03 24.98447 55.95362 8378 ft 329 kts 275°
2026-05-05 12:03 24.98682 55.92860 8255 ft 328 kts 275°
2026-05-05 12:03 24.98926 55.90362 8123 ft 327 kts 275°
2026-05-05 12:04 24.99172 55.87873 7999 ft 326 kts 275°
2026-05-05 12:04 24.99413 55.85413 7928 ft 319 kts 275°
2026-05-05 12:04 24.99668 55.83026 7810 ft 305 kts 279°
2026-05-05 12:04 25.00416 55.80908 7606 ft 293 kts 300°
2026-05-05 12:05 25.01504 55.79069 7319 ft 279 kts 301°
2026-05-05 12:05 25.02523 55.77283 6675 ft 274 kts 301°
2026-05-05 12:05 25.03539 55.75534 5956 ft 274 kts 303°
2026-05-05 12:05 25.04564 55.73780 5256 ft 271 kts 302°
2026-05-05 12:06 25.05551 55.72037 4860 ft 257 kts 302°
2026-05-05 12:06 25.06482 55.70368 4906 ft 266 kts 302°
2026-05-05 12:06 25.07476 55.68582 4931 ft 277 kts 302°
2026-05-05 12:06 25.08487 55.66757 4673 ft 281 kts 301°
2026-05-05 12:07 25.09475 55.64973 4307 ft 265 kts 302°
2026-05-05 12:07 25.10410 55.63288 3989 ft 250 kts 302°
2026-05-05 12:07 25.11312 55.61659 3845 ft 248 kts 302°
2026-05-05 12:07 25.12217 55.60027 3710 ft 251 kts 303°
2026-05-05 12:08 25.13143 55.58362 3609 ft 256 kts 303°
2026-05-05 12:08 25.14071 55.56688 3327 ft 256 kts 303°
2026-05-05 12:08 25.15001 55.55012 3040 ft 256 kts 302°
2026-05-05 12:08 25.15919 55.53350 2710 ft 255 kts 304°
2026-05-05 12:09 25.16813 55.51735 2407 ft 239 kts 305°
2026-05-05 12:09 25.17653 55.50218 2106 ft 221 kts 304°
2026-05-05 12:09 25.18424 55.48827 1868 ft 203 kts 305°
2026-05-05 12:09 25.19134 55.47544 1600 ft 188 kts 305°
2026-05-05 12:10 25.19783 55.46371 1362 ft 166 kts 306°
2026-05-05 12:10 25.20336 55.45369 1179 ft 147 kts 304°
2026-05-05 12:10 25.20836 55.44381 996 ft 145 kts 298°
2026-05-05 12:10 25.21357 55.43426 901 ft 148 kts 305°
2026-05-05 12:11 25.21905 55.42472 768 ft 146 kts 302°
2026-05-05 12:11 25.22445 55.41547 499 ft 137 kts 306°
2026-05-05 12:11 25.22940 55.40642 363 ft 139 kts 303°
2026-05-05 12:11 25.23426 55.39767 110 ft 126 kts 305°
2026-05-05 12:12 25.23889 55.38937 36 ft 122 kts 304°
2026-05-05 12:12 25.24279 55.38245 32 ft 82 kts 301°
2026-05-05 12:12 25.24498 55.37854 29 ft 55 kts 302°
2026-05-05 12:12 25.24609 55.37559 27 ft 19 kts 273°
2026-05-05 12:13 25.24612 55.37467 27 ft 11 kts 271°
2026-05-05 12:13 25.24612 55.37459 27 ft 0 kts 272°
2026-05-05 12:13 25.24612 55.37457 27 ft 2 kts 272°
2026-05-05 12:14 25.24615 55.37401 27 ft 10 kts 272°
2026-05-05 12:14 25.24618 55.37324 26 ft 10 kts 274°
2026-05-05 12:14 25.24653 55.37211 27 ft 20 kts 298°
2026-05-05 12:14 25.24724 55.37083 27 ft 20 kts 300°
2026-05-05 12:15 25.24797 55.36957 27 ft 19 kts 303°
2026-05-05 12:15 25.24855 55.36823 27 ft 20 kts 287°
2026-05-05 12:15 25.24892 55.36679 26 ft 19 kts 293°
2026-05-05 12:15 25.24942 55.36578 26 ft 9 kts 304°
2026-05-05 12:16 25.24935 55.36519 26 ft 9 kts 213°
2026-05-05 12:16 25.24875 55.36486 29 ft 10 kts 208°
2026-05-05 12:16 25.24818 55.36449 30 ft 3 kts 212°
2026-05-05 12:16 25.24809 55.36443 30 ft 1 kts 212°
2026-05-05 12:17 25.24807 55.36441 29 ft 0 kts 212°